, CA

(GMT )
Point Mugu

Weather History for KNTD - August, 2014

Change the Weather History Date:

Sunday, August 3, 2014

  Actual Average Record
Temperature  
Mean Temperature 74 °F -  
Max Temperature 81 °F 70 °F 82 °F (2017)
Min Temperature 68 °F 56 °F 50 °F (2004)
Cooling Degree Days 9    
Growing Degree Days 24 (Base 50)    
Moisture  
Dew Point 64 °F    
Average Humidity 76    
Maximum Humidity 87    
Minimum Humidity 54    
Precipitation  
Precipitation 0.00 in - - ()
Sea Level Pressure  
Sea Level Pressure 29.92 in    
Wind  
Wind Speed 5 mph (NW)    
Max Wind Speed 13 mph    
Max Gust Speed -    
Visibility 9 miles    
Events Rain    
Averages and records for this station are not official NWS values.
T = Trace of Precipitation, MM = Missing Value Source: NWS Daily Summary

Daily Weather History Graph

Daily Weather History Graph

Search for Another Location

Airport or City:

Trip Planner

Search our weather history database for the weather conditions in past years. The results will help you decide how hot, cold, wet, or windy it might be!

Date:

Astronomy

Aug. 03, 2014 Rise Set
Actual Time 6:09 AM PDT 7:55 PM PDT
Civil Twilight 5:41 AM PDT 8:22 PM PDT
Nautical Twilight 5:08 AM PDT 8:55 PM PDT
Astronomical Twilight 4:33 AM PDT 9:30 PM PDT
Moon 1:13 PM PDT (8/3) No Moon Set
Length of Visible Light 14h 40m
Length of Day
13h 46m
Waxing Crescent, 48% of the Moon is Illuminated
Aug 3
Waxing Crescent
Aug 3
First Quarter
Aug 10
Full
Aug 17
Last Quarter
Aug 25
New

Hourly Weather History & Observations

Time (PDT) Temp. Heat Index Dew Point Humidity Pressure Visibility Wind Dir Wind Speed Gust Speed Precip Events Conditions
12:56 AM 72.0 °F - 64.0 °F 76% 29.92 in 10.0 mi WNW 4.6 mph - N/A   Clear
1:56 AM 69.1 °F - 64.0 °F 84% 29.92 in 7.0 mi Calm Calm - 0.00 in Rain Light Rain
2:56 AM 68.0 °F - 64.0 °F 87% 29.91 in 7.0 mi Calm Calm - 0.00 in Rain Light Rain
3:56 AM 69.1 °F - 64.0 °F 84% 29.91 in 9.0 mi NE 4.6 mph - 0.00 in Rain Light Rain
4:56 AM 69.1 °F - 64.9 °F 87% 29.91 in 8.0 mi Calm Calm - 0.00 in   Clear
5:56 AM 70.0 °F - 64.9 °F 84% 29.91 in 7.0 mi NNW 3.5 mph - 0.00 in Rain Light Rain
6:05 AM 70.0 °F - 64.9 °F 84% 29.91 in 8.0 mi Calm Calm - 0.00 in Rain Light Rain
6:26 AM 71.1 °F - 64.9 °F 81% 29.90 in 7.0 mi NW 6.9 mph - 0.00 in Rain Light Rain
6:47 AM 71.1 °F - 66.0 °F 84% 29.91 in 7.0 mi NW 5.8 mph - 0.00 in   Overcast
6:56 AM 71.1 °F - 66.0 °F 84% 29.91 in 6.0 mi NW 6.9 mph - 0.00 in Rain Light Rain
7:56 AM 71.1 °F - 66.0 °F 84% 29.94 in 8.0 mi North 4.6 mph - 0.00 in   Mostly Cloudy
8:15 AM 72.0 °F - 66.0 °F 81% 29.93 in 9.0 mi NW 9.2 mph - 0.00 in Rain Light Rain
8:56 AM 72.0 °F - 66.0 °F 81% 29.94 in 7.0 mi NW 8.1 mph - 0.00 in Rain Light Rain
9:56 AM 73.0 °F - 66.0 °F 79% 29.95 in 10.0 mi NW 4.6 mph - 0.00 in   Overcast
10:56 AM 75.0 °F - 66.0 °F 73% 29.96 in 10.0 mi WNW 5.8 mph - 0.00 in   Mostly Cloudy
11:56 AM 75.0 °F - 66.0 °F 73% 29.95 in 7.0 mi WNW 6.9 mph - 0.00 in Rain Light Rain
12:56 PM 75.0 °F - 66.9 °F 76% 29.94 in 10.0 mi WNW 4.6 mph - 0.00 in Rain Light Rain
1:56 PM 73.9 °F - 64.0 °F 71% 29.93 in 10.0 mi WNW 12.7 mph - 0.00 in Rain Light Rain
2:56 PM 77.0 °F - 63.0 °F 62% 29.91 in 10.0 mi NW 8.1 mph - 0.00 in   Mostly Cloudy
3:56 PM 75.9 °F - 63.0 °F 64% 29.91 in 10.0 mi WNW 9.2 mph - N/A   Mostly Cloudy
4:56 PM 80.1 °F 81.2 °F 62.1 °F 54% 29.90 in 10.0 mi NNW 8.1 mph - N/A   Mostly Cloudy
5:56 PM 75.9 °F - 62.1 °F 62% 29.91 in 10.0 mi WNW 4.6 mph - N/A   Mostly Cloudy
6:56 PM 71.1 °F - 62.1 °F 73% 29.91 in 10.0 mi West 11.5 mph - N/A   Mostly Cloudy
7:56 PM 71.1 °F - 61.0 °F 70% 29.92 in 10.0 mi North 4.6 mph - N/A   Mostly Cloudy
8:56 PM 71.1 °F - 61.0 °F 70% 29.93 in 10.0 mi WNW 6.9 mph - N/A   Mostly Cloudy
9:56 PM 69.1 °F - 61.0 °F 75% 29.94 in 10.0 mi West 6.9 mph - N/A   Mostly Cloudy
10:56 PM 69.1 °F - 61.0 °F 75% 29.94 in 10.0 mi WNW 3.5 mph - N/A   Overcast
11:56 PM 68.0 °F - 61.0 °F 78% 29.95 in 10.0 mi West 4.6 mph - N/A   Clear